Other Public Products
Issued by NWS Grand Forks, ND

Home | Current Version | Previous Version | Text Only | Print | Product List | Glossary On
Versions: 1 2 3 4 5 6 7 8 9 10 11 12 13 14 15 16 17 18 19 20 21 22 23 24 25 26 27 28 29 30 31 32 33 34 35 36 37 38 39 40 41 42 43 44 45 46 47 48 49 50
000
FPUS83 KFGF 271231
OPUFGF
PRAIRIE TO PINES WEATHER ROUNDUP
NATIONAL WEATHER SERVICE EASTERN NORTH DAKOTA/GRAND FORKS ND
700 AM CDT SAT MAY 27 2017

 **SATELLITE DATA USED TO AUGMENT SKY COVER AT AUTOMATED STATIONS**
 *****  WEATHER ACROSS EASTERN NORTH DAKOTA  *****

CITY           SKY/WX    TMP DP  RH WIND       PRES   REMARKS
GRAND FORKS    FAIR      53  43  68 W9        29.78R
6HR MIN TEMP:  47; 6HR MAX TEMP:  55;

GRAND FORKS AF FAIR      53  41  64 W8        29.79R
GRAND CITY NWS NOT AVBL
BUXTON           N/A     53  46  77 W6          N/A
DEVILS LAKE    FAIR      53  44  71 W12       29.80S
6HR MIN TEMP:  50; 6HR MAX TEMP:  53;

FARGO          FAIR      54  45  71 MISG      29.82S
6HR MIN TEMP:  48; 6HR MAX TEMP:  54;

WAHPETON ARPT  FAIR      52  45  76 CALM      29.87R
$$

 *****  WEATHER ACROSS CENTRAL AND WESTERN NORTH DAKOTA  *****

CITY           SKY/WX    TMP DP  RH WIND       PRES   REMARKS
JAMESTOWN      FAIR      51  41  68 W7        29.84S
6HR MIN TEMP:  50; 6HR MAX TEMP:  54;

BISMARCK       FAIR      47  38  71 SW5       29.88R
6HR MIN TEMP:  41; 6HR MAX TEMP:  53;

MINOT          CLOUDY    54  40  59 SW13      29.81R
6HR MIN TEMP:  50; 6HR MAX TEMP:  55;

MINOT AFB      MOCLDY    52  41  68 W10       29.80S
6HR MIN TEMP:  47; 6HR MAX TEMP:  53;

GARRISON         N/A     45  38  76 W6        29.84F
6HR MIN TEMP:  42; 6HR MAX TEMP:  50;

WILLISTON      CLOUDY    50  40  68 W14       29.87S
6HR MIN TEMP:  47; 6HR MAX TEMP:  52;

DICKINSON      FAIR      43  36  76 W7        29.90R
6HR MIN TEMP:  38; 6HR MAX TEMP:  46;

HETTINGER      FAIR      43  37  79 NW6       29.95R
6HR MIN TEMP:  36; 6HR MAX TEMP:  50;

$$

 *****  OTHER OBSERVATIONS NORTHEAST NORTH DAKOTA  *****

CITY           SKY/WX    TMP DP  RH WIND       PRES   REMARKS
WALHALLA       NOT AVBL
LANGDON        FAIR      50  46  87 W13       29.77S
CAVALIER       FAIR      55  43  62 W10       29.74S
GRAFTON        FAIR      54  46  76 W12       29.78S
CANDO          NOT AVBL
FORT TOTTEN      N/A     49  40  71 W2        29.95S
ROLLA          FAIR      48  43  81 W12       29.78R
RUGBY          NOT AVBL
 ***** THE ABOVE OBSERVATIONS ARE NON NWS ARE NOT QUALITY
        CONTROLLED AND MAY MIS-REPORT RAIN FOR SNOW...
$$

 *****  OTHER OBSERVATIONS SOUTHEAST NORTH DAKOTA *****

CITY           SKY/WX    TMP DP  RH WIND       PRES   REMARKS
COOPERSTOWN    FAIR      52  43  71 W10       29.83S
VALLEY CITY    FAIR      54  45  71 W12       29.85S
OAKES          NOT AVBL
GWINNER        MOSUNNY   54  46  76 MISG      29.86S
SHEYENNE NWR     N/A     49  46  88 SW6       29.95S
BUFFALO          N/A     53  42  65 E3          N/A
WYNDMERE         N/A     54  46  76 W5          N/A
 ***** THE ABOVE OBSERVATIONS ARE NON NWS ARE NOT QUALITY
       CONTROLLED AND MAY MIS-REPORT RAIN FOR SNOW...
$$

  *****  WEATHER ACROSS NORTHERN MINNESOTA  *****

CITY           SKY/WX    TMP DP  RH WIND       PRES   REMARKS
FLAG ISLAND    FAIR      52  45  76 SW5       29.73S
WARROAD        FAIR      50  45  81 S6        29.76S
ROSEAU         FAIR      52  46  82 S7        29.75F
HALLOCK        PTSUNNY   52  45  76 S6        29.75R
THF RVR FALLS  FAIR      51  43  74 SW9       29.80R
6HR MIN TEMP:  46; 6HR MAX TEMP:  54;

HALSTAD          N/A     52  45  75 SW8         N/A
FOSSTON        FAIR      52  43  71 S9        29.82S
BAUDETTE       FAIR      47  43  86 SW5       29.77S
6HR MIN TEMP:  45; 6HR MAX TEMP:  51;

WASKISH        FAIR      54  46  76 CALM      29.80S
CROOKSTON      FAIR      50  43  76 SW5       29.80S
$$
  *****  WEATHER ACROSS CENTRAL AND WEST MINNESOTA  *****

CITY           SKY/WX    TMP DP  RH WIND       PRES   REMARKS
BEMIDJI        FAIR      52  44  74 SW8       29.82R
PARK RAPIDS    FAIR      49  42  77 CALM      29.84R
6HR MIN TEMP:  46; 6HR MAX TEMP:  53;

WADENA         FAIR      52  45  76 SW3       29.86R
DETROIT LAKES  FAIR      54  45  71 SW6       29.85F
MOORHEAD       FAIR      54  45  71 S7        29.85R
FERGUS FALLS   FAIR      50  46  87 S5        29.86S
ELBOW LAKE     FAIR      51  48  90 CALM      29.88S
6HR MIN TEMP:  47; 6HR MAX TEMP:  51;

MORRIS MN      FAIR      54  48  82 SW5       29.88R
STAPLES        FAIR      52  45  76 CALM      29.87R
WHEATON        FAIR      55  46  71 SW5       29.89R
$$
  *****  WEATHER ELSEWHERE ACROSS MINNESOTA  *****

CITY           SKY/WX    TMP DP  RH WIND       PRES   REMARKS
DULUTH         FAIR      55  46  71 W9        29.84R
6HR MIN TEMP:  47; 6HR MAX TEMP:  55;

INTRNTL FALLS  FAIR      48  43  82 SW5       29.78S
6HR MIN TEMP:  43; 6HR MAX TEMP:  52;

ELY            FAIR      50  48  93 SW3       29.82S
CLOQUET        FAIR      55  46  71 W6        29.84F
BRAINERD       FAIR      49  46  90 CALM      29.86S
6HR MIN TEMP:  44; 6HR MAX TEMP:  55;

HIBBING        FAIR      44  44 100 CALM      29.83R
6HR MIN TEMP:  38; 6HR MAX TEMP:  54;

ALEXANDRIA     FAIR      52  46  80 SW7       29.89R
6HR MIN TEMP:  48; 6HR MAX TEMP:  52;

SAINT CLOUD    FAIR      50  50 100 CALM      29.87S
6HR MIN TEMP:  45; 6HR MAX TEMP:  54;

MINNEAPOLIS    FAIR      57  48  72 SW3       29.89R
6HR MIN TEMP:  55; 6HR MAX TEMP:  62;

$$

  *****  WEATHER ACROSS SOUTH DAKOTA  *****

CITY           SKY/WX    TMP DP  RH WIND       PRES   REMARKS
SIOUX FALLS    LGT RAIN  55  49  80 SW3       29.93R
6HR MIN TEMP:  47; 6HR MAX TEMP:  55; 6HR PCP: TRACE;

BROOKINGS      CLOUDY    53  50  89 CALM      29.92R
WATERTOWN      CLOUDY    50  47  89 S3        29.90S
6HR MIN TEMP:  47; 6HR MAX TEMP:  52;

HURON          CLOUDY    55  50  83 NW5       29.91F
6HR MIN TEMP:  54; 6HR MAX TEMP:  57; 6HR PCP: TRACE;

SISSETON         N/A     59  47  64 W8        29.86R
ABERDEEN       CLOUDY    52  44  74 S6        29.90R
6HR MIN TEMP:  48; 6HR MAX TEMP:  52;

MITCHELL       CLOUDY    58  49  72 SW7       29.92R
PIERRE         LGT RAIN  54  50  86 NW3       29.94R
6HR MIN TEMP:  54; 6HR MAX TEMP:  62; 6HR PCP:  0.01;

MOBRIDGE       FAIR      55  42  61 CALM      29.89R
RAPID CITY     CLOUDY    48  45  89 NW5       29.99R
6HR MIN TEMP:  48; 6HR MAX TEMP:  51; 6HR PCP: TRACE;

$$

  *****  SOME WEATHER IN NEARBY STATES *****

CITY           SKY/WX    TMP DP  RH WIND       PRES   REMARKS
GLASGOW MT     CLOUDY    49  40  71 W3        29.90S
6HR MIN TEMP:  46; 6HR MAX TEMP:  50; 6HR PCP: TRACE;

GREAT FALLS MT FAIR      44  36  73 SW13      30.03S
6HR MIN TEMP:  43; 6HR MAX TEMP:  49;

CHEYENNE WY    CLOUDY    43  38  82 N9        30.07R
6HR MIN TEMP:  42; 6HR MAX TEMP:  45; 6HR PCP: TRACE;

SCOTTSBLUFF NE CLOUDY    50  47  89 W3        30.02R
6HR MIN TEMP:  48; 6HR MAX TEMP:  50;

OMAHA NE       CLOUDY    59  50  72 NW8       29.88S
6HR MIN TEMP:  55; 6HR MAX TEMP:  60;

DES MOINES IA  FOG       62  60  93 CALM      29.88F VSB 1
6HR MIN TEMP:  60; 6HR MAX TEMP:  67;

DAVENPORT IA   FOG       57  56  96 N3        29.92S VSB 1
6HR MIN TEMP:  56; 6HR MAX TEMP:  60;

CHICAGO IL     FAIR      55  51  86 N5        29.91R
6HR MIN TEMP:  52; 6HR MAX TEMP:  57;

EAU CLAIRE WI  FAIR      56  55  97 CALM      29.86R
6HR MIN TEMP:  52; 6HR MAX TEMP:  59;

LA CROSSE WI   PTSUNNY   61  59  93 SW6       29.87S FOG
6HR MIN TEMP:  58; 6HR MAX TEMP:  63;

$$

  *****  SOME NATIONAL WEATHER *****

CITY           SKY/WX    TMP DP  RH WIND       PRES   REMARKS
LA GUARDIA NY  FAIR      65  54  67 NW9       29.87S


USA.gov is the U.S. government's official web portal to all federal, state and local government web resources and services.